Location: Cincinnati Observatory Center
(39.1389°N, 84.4225°W)
Time: 18:03:27
(UTC-05:00)

Daily predictions for brighter satellites

Satellite Brightness Start Highest point End
(mag) Time Altitude Azimuth Time Altitude Azimuth Time Altitude Azimuth
Cosmos 468 Rocket 4.1 17:42:25 10° N 17:47:29 53° ENE 17:52:29 10° SE
ERBS 3.4 17:46:29 10° NNW 17:49:24 26° NE 17:52:19 10° E
COSMOS 2406 3.2 17:43:58 10° NNW 17:49:44 73° ENE 17:55:24 10° SSE
ERS-2 3.5 17:47:16 10° ESE 17:49:53 19° ENE 17:52:31 10° NNE
Cosmos 1844 Rocket 3.0 17:44:21 10° SSW 17:50:00 75° WNW 17:55:39 10° NNE
CZ-2C R/B 4.2 17:48:10 10° NNE 17:52:23 40° E 17:56:39 10° S
Tsikada Rocket 4.0 17:47:11 10° N 17:53:20 65° E 17:59:26 10° SSE
COSMOS 2455 2.9 17:47:41 10° SSW 17:53:39 71° ESE 17:59:38 10° NNE
Timation 1 Rocket 4.5 17:52:10 10° S 17:58:01 60° ESE 18:03:56 10° NNE
COSMO-SKYMED 1 3.6 17:58:13 10° NE 18:01:53 26° E 18:05:32 10° SSE
YAOGAN 1 3.1 17:58:33 10° SE 18:02:31 36° ENE 18:06:29 10° N
BREEZE-M R/B 3.6 18:02:06 10° NNW 18:04:24 24° NNE 18:07:11 12° E
CZ-4 R/B 1.3 18:02:41 10° SSE 18:06:29 56° ENE 18:10:16 10° N
CSL-04 Debris 4.2 18:01:59 10° SSE 18:07:25 90° NE 18:12:51 10° NNW
Cosmos 1763 Rocket 3.7 18:04:15 10° N 18:09:18 48° ENE 18:14:16 10° SE
Meteor 1-26 Rocket 4.2 18:03:47 10° S 18:09:20 70° E 18:14:52 10° NNE
Meteor 2-12 Rocket 4.5 18:03:44 10° S 18:09:50 88° W 18:15:57 10° N
Centaur D AC-28 4.0 18:06:26 10° SSW 18:10:16 28° SSE 18:20:38 10° E
USA 116 3.9 18:06:27 10° NNE 18:10:59 62° E 18:14:55 10° S
Cosmos 2346 Rocket 4.4 18:06:11 10° N 18:12:18 66° E 18:18:26 10° SSE
Cosmos 1933 4.4 18:09:43 10° SSW 18:13:37 47° W 18:17:32 10° N
Cosmos 1844 4.3 18:10:16 10° SW 18:15:58 61° WNW 18:21:43 10° NNE
ALOS 3.2 18:13:15 10° SE 18:17:06 26° ENE 18:20:57 10° NNE
Cosmos 1814 Rocket 4.0 18:12:57 10° NNW 18:18:18 66° ENE 18:23:37 10° SSE
Cosmos 1833 Rocket 3.7 18:14:19 10° N 18:18:51 24° NE 18:23:09 11° ESE
Cosmos 2278 Rocket 2.2 18:16:10 10° SSW 18:21:49 72° ESE 18:27:29 10° NNE
SL-27 R/B 3.4 18:21:03 10° N 18:23:50 24° ENE 18:24:59 20° E
Cosmos 1703 Rocket 3.9 18:19:45 10° SSE 18:24:00 44° E 18:28:16 10° NNE
Centaur D AC-29 3.7 18:18:48 10° WSW 18:24:59 20° SSW 18:28:06 10° SSE
SMAP 3.6 18:22:33 10° S 18:27:09 62° W 18:31:46 10° NNW
Ariane Rocket 3.9 18:25:45 10° S 18:30:42 54° W 18:35:42 10° NNW
Cosmos 1464 Rocket 4.3 18:25:51 10° SSE 18:31:28 40° E 18:37:08 10° NNE
Cosmos 1633 3.1 18:28:11 10° NNE 18:31:33 34° ENE 18:34:55 10° SE
Okean 2 Rocket 4.1 18:29:23 10° NNE 18:33:06 25° ENE 18:36:48 10° SE
Cosmos 1484 Rocket 4.1 18:30:32 10° S 18:34:09 42° W 18:37:53 10° NNW
Meteor 1-28 Rocket 4.2 18:35:45 10° N 18:39:19 46° WNW 18:42:52 10° SSW
Cosmos 540 Rocket 4.0 18:36:54 10° N 18:41:41 36° ENE 18:46:03 12° SE
Cosmos 1606 2.6 18:38:20 10° S 18:42:03 60° E 18:45:11 14° NNE
USA 234 3.2 18:36:48 16° NE 18:42:15 81° SE 18:48:47 10° SW
Cosmos 841 Rocket 3.4 18:37:45 10° NNW 18:43:03 74° ENE 18:48:17 10° SSE
Cosmos 1486 Rocket 4.0 18:39:37 10° SSW 18:44:49 84° WNW 18:50:05 10° NNE
EO 1 Del DPAF 3.1 18:42:01 10° NNE 18:45:52 85° ESE 18:49:40 10° SSW
Meteor 2-6 Rocket 4.2 18:43:53 10° S 18:49:06 52° E 18:54:27 10° NNE
Atlas 2A Centaur Rocket 4.5 18:31:25 10° WSW 18:49:32 34° SSW 18:53:42 14° SE
Cosmos 1782 2.7 18:45:51 10° S 18:49:52 75° E 18:53:34 12° N
SKYMED 2 3.5 18:45:41 10° NNE 18:50:03 87° WNW 18:54:23 10° SSW
Cosmos 1908 Rocket 3.6 18:46:25 10° N 18:50:46 77° W 18:55:04 10° S
Meteor 1-25 Rocket 4.4 18:48:04 10° NNW 18:53:55 79° W 18:59:42 10° S
SPOT 3 Rocket 3.4 18:49:31 10° SSE 18:54:43 75° ENE 18:59:56 10° N
BREEZE-M DEB (TANK) 2.2 18:54:31 10° WSW 18:56:35 58° NNW 18:56:41 57° NNW
Sich 1 Rocket 3.7 18:53:50 10° N 18:58:15 78° W 19:02:41 10° S
Meteor 1-20 Rocket 4.3 18:53:00 10° NNW 18:58:35 78° W 19:04:02 10° S
Cosmos 1354 Rocket 3.9 18:55:08 10° S 19:00:22 68° ESE 19:03:33 24° NNE
Lacrosse 5 4.2 18:58:51 10° NW 19:00:45 12° NNW 19:02:39 10° N
CZ-4C R/B 3.7 18:55:06 10° NNW 19:01:10 29° NE 19:02:17 28° ENE
Cosmos 2082 Rocket 2.3 18:57:19 10° NNW 19:02:54 52° ENE 19:05:55 26° SE
NOAA 12 4.0 18:59:04 10° SSE 19:04:22 80° ENE 19:09:42 10° N
FengYun 1-2 T 4.5 19:03:37 24° SE 19:06:27 44° ENE 19:11:41 10° N
Cosmos 405 Rocket 3.4 19:07:28 10° S 19:10:02 38° SSE 19:10:02 38° SSE
Cosmos 44 Rocket 4.5 19:07:28 10° NNW 19:10:24 27° NNE 19:10:24 27° NNE
Meteor 1-27 Rocket 3.9 19:07:16 10° S 19:12:57 55° E 19:15:38 31° NNE
Cosmos 1513 Rocket 4.4 19:09:17 10° S 19:15:37 82° E 19:21:53 10° N
Meteor 1-10 Rocket 4.3 19:14:26 10° SSW 19:20:04 78° W 19:25:51 10° N
ERS-2 4.4 19:20:16 10° SSW 19:23:22 26° W 19:26:30 10° NW
Okean 1-7 3.8 19:21:14 10° SSW 19:25:28 51° W 19:29:04 14° N
ERBS 4.4 19:23:02 10° WNW 19:25:56 26° SW 19:27:00 22° SSW
Cosmos 1891 Rocket 4.4 19:21:21 10° S 19:27:34 82° W 19:33:41 10° N
Thor Agena Rocket 3.4 19:30:41 71° ESE 19:30:41 71° ESE 19:35:37 10° S
Cosmos 2034 Rocket 4.3 19:40:43 10° SSW 19:47:02 68° W 19:53:23 10° N
Nadezhda 4 Rocket 3.8 19:42:55 10° N 19:49:05 87° E 19:55:12 10° S
Meteor 1-11 Rocket 3.8 19:45:36 10° NNW 19:51:29 80° W 19:53:03 50° S
ALOS 4.1 19:50:20 10° SSW 19:54:24 29° W 19:58:30 10° NW
Cosmos 1833 Rocket 3.5 19:57:37 10° NW 20:03:00 48° WSW 20:05:02 33° SSW
USA 234 4.3 20:24:09 33° NNW 20:24:50 34° NNW 20:30:34 10° W
Cosmos 2082 Rocket 4.4 20:42:27 10° NW 20:46:30 20° W 20:47:57 19° WSW
CZ-4C R/B 3.8 20:43:03 10° NW 20:47:31 42° NW 20:47:31 42° NW
